sat.trackr.live / text

‹ back to catalog

STARLINK-33831

NORAD 63595 · 2025-076AC

PAYLOAD ACTIVE UNKNOWN

§ Identity

Operator
Country
US
Launch date
2025-04-14
Launch site
AFETR
Launch vehicle
Mass (kg)
RCS (m²)

Purposes: comms

External: N2YO · Heavens-Above · Gunter

§ Orbital elements

Epoch: 2026-09-19T13:46:00.728256Z

Period
94.27 min
Inclination
43.0046°
Eccentricity
0.0001298
Mean motion
15.27579161 rev/d
Perigee alt
482.2 km
Apogee alt
483.9 km
Semi-major
6,861.2 km
B*
4.8538e-4
RAAN
306.5683°
Arg perigee
265.3449°
Mean anomaly
94.7254°
Rev number
8,148

§ Raw data

STARLINK-338311 63595U 25076AC  26262.57361954  .00013118  00000+0  48538-3 0  99902 63595  43.0046 306.5683 0001298 265.3449  94.7254 15.27579161 81487

JSON: /api/v1/satellites/63595 · /tle

For live sub-satellite position, see the globe view (requires WebGL).

§ Visibility from observer

Set your observer location to see the next 7 days of passes ≥ 10°. The values pass through the URL so the page stays shareable.

No JS? Fill the form by hand. The geolocation button needs JavaScript.